Location: GMARS
(34.2910°N, 116.3838°W)
Time: 03:51:39
(UTC-07:00)

Daily predictions for brighter satellites

Satellite Brightness Start Highest point End
(mag) Time Altitude Azimuth Time Altitude Azimuth Time Altitude Azimuth
CZ-2C R/B 4.0 00:01:56 10° N 00:04:48 34° N 00:04:48 34° N
Mayak 1.7 00:12:52 10° NNE 00:13:19 13° NNE 00:13:19 13° NNE
Cosmos 1980 Rocket 4.1 00:30:02 21° NE 00:30:02 21° NE 00:32:04 10° NE
Cosmos 1697 Rocket 4.0 00:56:41 36° N 00:56:41 36° N 01:00:00 10° NNE
Cosmos 2297 Rocket 3.8 00:54:05 10° NNW 00:56:48 29° NW 00:56:48 29° NW
SL-16 R/B 4.1 01:12:15 21° ENE 01:12:15 21° ENE 01:14:34 10° NE
USA 234 4.3 01:07:08 10° NE 01:10:57 35° ENE 01:10:57 35° ENE
Cosmos 2322 Rocket 3.9 01:20:24 25° ENE 01:20:24 25° ENE 01:23:10 10° NE
CZ-4C R/B 3.4 01:15:10 10° NNW 01:22:19 54° NE 01:23:10 52° ENE
BREEZE-M DEB (TANK) 4.4 01:08:12 10° NW 01:28:23 76° WSW 01:28:23 76° WSW
NOSS 3-1 (A) 4.2 01:37:25 46° NNE 01:37:25 46° NNE 01:41:47 10° NNE
CZ-2D R/B 4.1 01:57:09 10° NE 02:00:39 19° E 02:00:39 19° E
Cosmos 2263 Rocket 3.5 02:00:46 10° N 02:05:55 34° ENE 02:06:36 33° ENE
Cosmos 2360 Rocket 3.4 02:10:47 34° ENE 02:10:47 34° ENE 02:14:51 10° NE
Cosmos 1980 Rocket 3.9 02:11:48 24° NW 02:11:48 24° NW 02:15:30 10° N
SL-16 R/B 4.1 02:11:56 22° ESE 02:14:39 30° ENE 02:19:59 10° N
Cosmos 2181 Rocket 4.0 02:27:57 10° N 02:34:09 84° N 02:34:09 84° N
Cosmos 2322 4.2 02:36:07 51° E 02:36:07 51° E 02:41:04 10° NNE
IRS-1D 4.2 02:40:56 10° NNE 02:45:17 47° E 02:45:17 47° E
Meteor 1-15 Rocket 4.2 02:49:43 78° NNE 02:49:43 78° NNE 02:55:01 10° N
Cosmos 2058 Rocket 4.2 02:52:56 40° ENE 02:52:56 40° ENE 02:56:42 10° NNE
SL-16 R/B 3.3 02:54:07 32° NW 02:54:07 32° NW 02:58:45 10° N
NOSS 2-3 (D) 4.2 02:55:35 61° NNE 02:55:35 61° NNE 02:59:54 10° NNE
Cosmos 1953 Rocket 4.5 02:51:56 10° N 02:55:50 46° ENE 02:55:50 46° ENE
USA 234 4.1 02:50:19 10° NNE 02:56:19 40° NW 02:58:18 33° WNW
OAO 3 Rocket 4.0 02:59:40 46° E 02:59:40 46° E 03:03:08 10° E
SL-08 R/B 4.3 03:01:22 38° NNW 03:01:22 38° NNW 03:04:16 10° NNW
Cosmos 2074 Rocket 3.8 03:00:15 77° SSW 03:00:44 85° W 03:07:04 10° N
Cosmos 2322 Rocket 3.5 03:02:13 27° WNW 03:02:13 27° WNW 03:06:53 10° N
Cosmos 44 3.7 03:01:04 10° NNW 03:05:22 52° ENE 03:05:27 52° ENE
CZ-4C R/B 4.1 03:04:17 10° NW 03:08:16 26° W 03:08:16 26° W
ARIANE 5 R/B 2.4 03:06:41 10° NNE 03:11:51 82° ESE 03:12:02 80° SE
Cosmos 1726 Rocket 4.1 03:15:01 53° NNW 03:15:01 53° NNW 03:18:29 10° N
ADEOS Rocket 3.4 03:09:47 10° N 03:15:30 43° WNW 03:15:43 43° WNW
Resurs 1-4 Rocket 1.9 03:12:11 10° N 03:17:27 75° WNW 03:17:37 75° W
Intelsat 5-1 Rocket 4.3 03:20:48 19° SE 03:20:48 19° SE 03:24:08 10° ESE
ATLAS 2AS CENTAUR R/B 2.9 03:18:32 51° SW 03:20:48 84° WNW 03:28:56 10° NNE
Cosmos 2154 Rocket 4.1 03:19:43 43° SSE 03:21:50 72° E 03:28:05 10° N
Cosmos 1610 Rocket 4.3 03:23:37 58° SSW 03:24:53 82° W 03:31:02 10° N
Cosmos 389 Rocket 4.0 03:25:46 31° E 03:25:46 31° E 03:28:55 10° NNE
CZ-2D R/B 3.9 03:26:53 10° NNE 03:31:06 56° E 03:31:32 53° SE
Aureole 2 Rocket 3.7 03:31:06 39° ESE 03:31:33 41° ESE 03:35:24 10° NNE
Cosmos 1271 Rocket 2.8 03:34:42 78° NE 03:34:42 78° NE 03:38:32 10° N
UNK 4.2 03:35:48 47° WNW 03:35:48 47° WNW 03:39:37 10° NNW
Cosmos 2237 4.3 03:35:18 53° WSW 03:36:15 60° WNW 03:41:52 10° NNE
MOS 1 Rocket 3.0 03:32:25 10° N 03:36:52 73° WNW 03:36:55 73° W
SEDSat Delta rocket 3.9 03:38:45 33° SE 03:38:45 33° SE 03:41:36 10° E
CZ-2D R/B 2.6 03:36:00 10° N 03:41:12 46° WNW 03:41:58 43° W
Cosmos 2341 Rocket 4.1 03:39:22 30° S 03:42:41 75° E 03:49:03 10° N
DELTA 2 R/B (1) 4.0 03:41:20 32° WNW 03:43:46 57° NNW 03:49:15 10° ENE
ISS -2.6 03:41:15 12° NNW 03:44:08 41° NE 03:47:14 10° ESE
Cosmos 1486 Rocket 3.9 03:38:57 10° NNW 03:44:10 62° WSW 03:45:06 53° SSW
UNKNOWN OBJECT B 2.6 03:41:10 10° N 03:45:00 81° WNW 03:45:00 81° WNW
ATLAS 2A CENTAUR R/B 3.8 03:48:23 13° SE 03:48:23 13° SE 03:48:43 10° SE
Chunghua 1 4.5 03:48:11 79° NNE 03:48:11 79° NNE 03:51:49 10° E
Meteor 2-8 Rocket 4.3 03:43:15 10° N 03:49:21 77° W 03:52:36 29° S
Cosmos 2263 Rocket 3.4 03:44:55 10° NW 03:48:13 25° WNW 03:48:13 25° WNW
Cosmos 44 Rocket 4.0 03:47:09 10° NW 03:50:26 36° WNW 03:50:26 36° WNW
Cosmos 2360 Rocket 3.4 03:52:34 24° W 03:53:43 26° WNW 03:58:22 10° N
Meteor 2-19 Rocket 4.4 03:51:57 38° SSW 03:54:19 68° W 04:00:28 10° N
ATLAS 3B R/B 3.5 03:48:56 10° NNW 03:55:23 49° NE 04:01:36 10° SE
Iridium 4 Rocket 4.3 03:55:28 36° WSW 03:56:30 39° W 04:01:50 10° NNW
Cosmos 2219 Rocket 2.2 03:54:38 36° SSW 03:57:03 84° ESE 04:02:45 10° NNE
Cosmos 1953 4.3 03:54:15 10° SSE 03:57:34 26° E 04:00:57 10° NNE
Cosmos 1354 Rocket 4.0 03:52:17 10° NNW 03:57:36 85° ENE 04:02:55 10° SSE
SL-16 R/B 3.0 03:57:02 35° WSW 03:58:04 37° W 04:03:48 10° NNW
Cosmos 1544 3.4 03:58:47 42° SSE 03:59:50 63° E 04:03:30 10° NNE
COSMOS 2428 3.0 03:58:09 38° WSW 03:59:59 53° WNW 04:05:37 10° N
Cosmos 1980 4.4 03:56:34 21° S 04:00:06 50° ESE 04:05:35 10° NNE
Cosmos 2237 Rocket 3.0 03:57:59 19° S 04:01:42 47° ESE 04:07:04 10° NNE
Cosmos 2228 4.0 04:03:54 29° WNW 04:03:54 29° WNW 04:07:32 10° NNW
CZ-4B R/B 4.4 04:04:39 10° NNE 04:08:14 33° E 04:11:45 11° SSE
KM-V1 4.5 04:07:23 38° WSW 04:08:56 57° S 04:11:59 10° ESE
Cosmos 1844 Rocket 2.7 04:04:24 10° NNW 04:10:06 82° ENE 04:15:46 10° SSE
BREEZE-M DEB (TANK) 3.3 04:10:00 24° WNW 04:11:05 32° NNW 04:15:12 10° NE
Cosmos 1932 4.4 04:07:53 10° NNW 04:14:22 80° WSW 04:20:42 10° SSE
Cosmos 2333 Rocket 2.2 04:15:30 27° SSW 04:18:46 80° WNW 04:24:29 10° NNE
USA 238 DEB 4.4 04:12:34 10° NNW 04:19:35 60° ENE 04:26:38 10° SE
USA 238 4.4 04:12:41 10° NNW 04:19:42 60° NE 04:26:44 10° SE
Cosmos 1707 4.4 04:21:05 10° NW 04:23:05 18° WNW 04:23:05 18° WNW
ERBS 2.3 04:23:50 37° SSW 04:25:03 77° SE 04:28:30 10° NE
Cosmos 1766 4.0 04:25:18 31° WSW 04:26:12 35° W 04:29:50 10° NNW
Cosmos 1809 Rocket 4.4 04:21:06 14° S 04:26:23 84° W 04:32:34 10° N
Atlas Centaur 2 3.2 04:28:18 16° S 04:29:59 20° SSE 04:33:30 10° ESE
Meteor 2-5 Rocket 4.5 04:25:26 10° NNW 04:30:25 32° W 04:33:16 21° SW
GENESIS II 4.0 04:30:12 10° NNW 04:34:07 82° WSW 04:37:57 10° SSE
Meteor 1-24 Rocket 3.9 04:29:12 10° NNW 04:34:26 50° W 04:39:50 10° SSW
Meteor 2-21 4.4 04:29:22 13° SSW 04:34:50 75° W 04:40:59 10° N
Cosmos 1503 Rocket 4.5 04:31:35 10° NW 04:36:29 39° W 04:41:24 10° SSW
Cosmos 2278 Rocket 3.1 04:31:38 10° N 04:37:09 52° ENE 04:42:39 10° SE
Meteor 2-14 Rocket 4.4 04:32:10 10° S 04:38:13 87° E 04:44:19 10° N
Cosmos 1733 4.0 04:36:35 10° S 04:40:21 53° E 04:44:09 10° NNE
Cosmos 1812 Rocket 4.2 04:38:38 22° SW 04:40:47 36° W 04:44:48 10° NNW
Abrixas rocket 2.2 04:39:43 27° WSW 04:41:22 73° NW 04:44:40 10° NE
OAO 3 Rocket 3.2 04:37:30 13° W 04:41:52 87° N 04:46:48 10° E
USA 161 2.1 04:41:08 24° SSW 04:42:25 38° W 04:45:13 10° NNW
SL-8 Rocket 4.3 04:42:25 13° SSW 04:47:52 51° W 04:54:00 10° N
SL-16 R/B 3.1 04:43:25 10° S 04:48:50 48° ESE 04:54:16 10° NNE
Cosmos 1674 2.9 04:47:47 10° N 04:51:38 76° E 04:55:28 10° S
Okean O Rocket 1.6 04:47:41 10° N 04:52:09 78° WNW 04:56:35 10° SSW
ADEOS II 2.3 04:49:38 10° N 04:54:45 54° WNW 04:59:51 10° SSW
Okean 3 Rocket 3.6 04:50:25 10° N 04:54:52 87° W 04:59:20 10° S
Meteor 2-15 4.4 04:48:52 10° NNW 04:55:00 72° W 05:01:04 10° S
Lacrosse 5 2.1 04:51:31 12° SSW 04:56:08 69° SE 05:01:12 10° NE
Landsat 4 3.7 04:52:52 10° SSE 04:56:36 81° ENE 05:00:19 10° N
Geosat 4.1 04:53:32 10° NNE 04:58:35 80° ESE 05:03:35 10° SSW
Cosmos 1805 4.4 04:57:51 15° SW 05:00:09 25° WNW 05:03:26 10° NNW
Meteor PRIRODA 4.3 04:56:49 10° NNE 05:00:30 58° E 05:04:09 10° S
Cosmos 1844 4.0 04:56:05 10° NW 05:01:25 45° WSW 05:06:47 10° S
Cosmos 1076 Rocket 3.5 05:00:36 10° N 05:04:51 90° NW 05:09:06 10° S
Cosmos 1766 Rocket 4.2 05:04:38 10° N 05:09:05 62° E 05:13:27 10° SSE
KORONAS-FOTON 3.9 05:05:47 10° N 05:09:44 87° E 05:13:39 10° S
Cosmos 1356 Rocket 4.3 05:12:00 10° NW 05:15:24 27° W 05:18:46 10° SSW
Tiangong 1 0.7 05:13:18 11° WSW 05:15:53 81° SSE 05:18:39 10° ENE
Cosmos 1727 Rocket 4.0 05:13:01 10° NNW 05:19:05 60° W 05:25:07 10° S
NOSS 3-4 (A) 3.7 05:13:30 10° SW 05:19:41 60° NW 05:26:04 10° NNE
NOSS 3-4 (C) 3.7 05:13:34 10° SW 05:19:46 61° WNW 05:26:09 10° NNE
ISS -2.0 05:18:35 10° W 05:20:18 14° SW 05:22:03 10° SSW
SEDSat Delta rocket 3.0 05:19:29 10° W 05:23:31 59° S 05:27:53 10° ESE
CZ-4B R/B 4.1 05:19:32 10° NNE 05:23:55 90° NNE 05:28:06 10° SSW
Lacrosse 5 rocket 1.5 05:20:57 10° NW 05:25:05 87° NE 05:29:27 10° SE
SeaSat 1 2.7 05:21:54 10° S 05:26:38 47° WSW 05:31:23 10° NW
